[[{"header":{"parameterUnit":"m.s-1","parameterCategory":1,"la1":30.2991,"la2":30.254,"lo1":-89.0895,"lo2":-89.0444,"dy":0.0017,"dx":0.0017,"nx":28,"ny":28,"refTime":"2024-11-23T09:00:00:Z","depth":0,"parameterNumber":2,"parameterNumberName":"U-component_of_WINDS"},"data":[0,0,0,0,0,0,0,0,0,0,0,0,0,0,0,0,0,0,0,0,0,0,0,0,0,0,0,0,0,0,0,0,0,0,0,0,0,0,0,0,0,0,0,0,0,0,0,0,0,0,0,0,0,0,0,0,0,0,-0.8476,-0.8477,0,-0.855,-0.8551,-0.8552,-0.852,-0.8518,-0.8516,-0.8514,-0.8593,-0.8596,-0.86,0,0,0,0,0,0,0,0,0,0,0,0,0,-0.8306,-0.8309,-0.8476,-0.8477,-0.8478,-0.855,-0.8551,-0.8552,-0.852,-0.8518,-0.8516,-0.8514,-0.8591,-0.8596,-0.86,0,0,0,0,0,0,0,0,0,0,0,0,0,-0.838,-0.831,-0.8476,-0.847,-0.847,-0.855,-0.8551,-0.8553,-0.8521,-0.8518,-0.8515,-0.8513,-0.859,-0.8595,-0.8601,-0.8691,0,0,-0.8618,-0.8621,0,0,0,0,0,0,0,0,-0.8376,-0.8386,-0.847,-0.8471,-0.8471,-0.8523,-0.852,-0.8599,-0.8521,-0.8502,-0.8514,-0.8511,-0.8572,-0.8579,-0.8599,-0.8694,-0.8698,-0.8619,-0.8622,-0.8625,-0.8626,0,0,0,0,0,0,0,-0.8371,-0.8383,-0.8505,-0.8471,-0.8472,-0.8464,-0.8472,-0.8535,-0.8551,-0.8503,-0.8501,-0.851,-0.8572,-0.8593,-0.86,-0.8699,-0.8619,-0.8624,-0.8627,-0.8629,-0.8872,-0.8875,0,0,0,0,0,0,-0.8366,-0.8379,-0.8503,-0.8508,-0.8416,-0.847,-0.8478,-0.8509,-0.855,-0.8554,-0.8512,-0.8508,-0.8585,-0.8594,-0.8603,-0.8711,-0.8625,-0.863,-0.8633,-0.8869,-0.8872,-0.8876,0,0,0,0,0,0,-0.8362,-0.8377,-0.85,-0.8443,-0.8458,-0.8475,-0.8511,-0.8512,-0.8534,-0.8557,-0.856,-0.8532,-0.8583,-0.8595,-0.8669,-0.8714,-0.8633,-0.8638,-0.8865,-0.887,-0.8874,-0.8928,0,0,0,0,0,0,-0.8357,-0.8376,-0.841,-0.8444,-0.8461,-0.8565,-0.8513,-0.8516,-0.8544,-0.8539,-0.8576,-0.858,-0.8582,-0.8661,-0.8675,-0.872,-0.8642,-0.8861,-0.8867,-0.8873,-0.8923,-0.8934,-0.8944,0,0,0,0,0,-0.8351,-0.8423,-0.8412,-0.8427,-0.8504,-0.8567,-0.8577,-0.8578,-0.8547,-0.8582,-0.8597,-0.8579,-0.8706,-0.8669,-0.8684,-0.8732,-0.8859,-0.8866,-0.8872,-0.8918,-0.8932,-0.8944,0,0,0,0,0,0,-0.8395,-0.8427,-0.8416,-0.85,-0.8531,-0.8562,-0.8606,-0.8593,-0.8634,-0.8628,-0.8627,-0.8636,-0.8712,-0.8729,-0.8687,-0.882,-0.8778,-0.8788,-0.8807,-0.8821,-0.8831,-0.8826,-0.8647,0,0,0,0,0,-0.8414,-0.8463,-0.8488,-0.856,-0.8576,-0.8588,-0.8616,-0.8613,-0.8646,-0.8659,-0.8679,-0.8712,-0.8759,-0.879,-0.8835,-0.8924,-0.8932,-0.8964,-0.8975,-0.8983,-0.8993,-0.9041,-0.9056,-0.8898,-0.8898,-0.8898,0,0,-0.8455,-0.8478,-0.8509,-0.8569,-0.8593,-0.8644,-0.86,-0.8655,-0.8693,-0.8668,-0.8739,-0.8755,-0.8791,-0.8873,-0.891,-0.8889,-0.9038,-0.8992,-0.8999,-0.9004,-0.905,-0.9065,-0.9078,-0.8903,-0.8902,-0.8901,0,0,-0.8555,-0.8577,-0.864,-0.8664,-0.8701,-0.8708,-0.8723,-0.8755,-0.8765,-0.8836,-0.8818,-0.8863,-0.8944,-0.8971,-0.8995,-0.9103,-0.9089,-0.9118,-0.9174,-0.9221,-0.9234,-0.9245,-0.9285,-0.9299,-0.9127,-0.9127,-0.9127,0,-0.8602,-0.8677,-0.8674,-0.8731,-0.8758,-0.8736,-0.88,-0.8824,-0.8873,-0.8892,-0.8868,-0.8969,-0.8992,-0.908,-0.9106,-0.9126,-0.9144,-0.9115,-0.9232,-0.9243,-0.9254,-0.9291,-0.9306,-0.913,-0.913,-0.913,-0.9129,0,-0.8732,-0.8784,-0.883,-0.8878,-0.891,-0.897,-0.8976,-0.9009,-0.9003,-0.9013,-0.9086,-0.9112,-0.9162,-0.9182,-0.9177,-0.9269,-0.9255,-0.9232,-0.9189,-0.9272,-0.9308,-0.9322,-0.9135,-0.9134,-0.9133,-0.9132,0,0,-0.8864,-0.8908,-0.8925,-0.8946,-0.8984,-0.9025,-0.9083,-0.9131,-0.9159,-0.9193,-0.9243,-0.9311,-0.929,-0.9317,-0.9315,-0.9356,-0.9441,-0.9327,-0.9328,-0.9348,-0.9545,-0.9563,-0.958,-0.943,-0.9433,-0.9435,-0.9542,0,-0.8968,-0.9071,-0.9069,-0.9164,-0.9213,-0.9192,-0.9243,-0.9272,-0.9282,-0.9325,-0.9336,-0.9385,-0.9352,-0.9368,-0.9408,-0.9422,-0.9481,-0.9414,-0.9477,-0.948,-0.9471,-0.9599,-0.9619,-0.9718,-0.9556,-0.9558,-0.956,0,-0.9104,-0.9142,-0.9242,-0.9272,-0.9292,-0.9338,-0.9381,-0.9422,-0.9454,-0.9458,-0.9488,-0.9479,-0.9539,-0.9493,-0.9575,-0.953,-0.9555,-0.9566,-0.957,-0.9577,-0.9526,-0.9611,-0.975,-0.9766,-0.9581,-0.958,-0.9578,0,-0.9191,-0.9267,-0.9337,-0.9355,-0.9392,-0.9425,-0.9441,-0.947,-0.9499,-0.9537,-0.9556,-0.96,-0.9625,-0.9659,-0.9662,-0.9628,-0.9746,-0.97,-0.9752,-0.9752,-0.9779,-0.9778,-0.9926,-0.9793,-0.9793,-0.9792,-0.9792,0,-0.9309,-0.9371,-0.9377,-0.942,-0.9489,-0.9486,-0.9554,-0.9568,-0.9594,-0.9639,-0.9623,-0.9667,-0.9667,-0.9711,-0.9714,-0.9782,-0.9793,-0.9799,-0.9799,-0.9801,-0.9801,-0.9819,-0.9813,-0.9796,-0.9796,-0.9795,-0.9794,0,-0.9419,-0.9425,-0.95,-0.9528,-0.9536,-0.9586,-0.961,-0.9651,-0.9659,-0.9716,-0.973,-0.9743,-0.9794,-0.9799,-0.9859,-0.9861,-0.9943,-0.9935,-0.9933,-0.9932,-0.9984,-0.998,-1.0151,-1.0173,-1.0024,-1.0025,-1.0027,0,-0.9495,-0.9542,-0.9574,-0.9603,-0.9622,-0.9669,-0.9698,-0.9696,-0.9727,-0.9766,-0.9803,-0.9851,-0.9891,-0.9973,-0.9988,-1.0033,-1.0027,-1.0084,-1.0034,-1.0035,-1.0029,-1.0027,-1.0032,-1.0094,-1.0096,-1.0097,-1.0098,0,-0.9628,-0.9628,-0.967,-0.9714,-0.9748,-0.9782,-0.9814,-0.9839,-0.9841,-0.9876,-0.9928,-0.9958,-1.0018,-1.0067,-1.0111,-1.0129,-1.0115,-1.0113,-1.0128,-1.0132,-1.0129,-1.0132,-0.996,-1.011,-1.0109,-1.0108,-1.0107,-1.0107,-0.9724,-0.9765,-0.9794,-0.9842,-0.9865,-0.9895,-0.9935,-0.9947,-0.999,-1.0038,-1.0035,-1.0092,-1.0121,-1.0179,-1.0199,-1.0244,-1.0225,-1.0246,-1.0252,-1.0258,-1.0263,-1.012,-1.0252,-1.0251,-1.0251,-1.0251,-1.0251,0,-0.9858,-0.9875,-0.9918,-0.9963,-1.0,-0.9982,-1.0016,-1.0048,-1.0098,-1.0127,-1.0165,-1.0224,-1.0271,-1.0289,-1.0335,-1.0368,-1.0362,-1.038,-1.0378,-1.0383,-1.0277,-1.026,-1.0383,-1.0383,-1.0383,-1.0383,-1.0383,-1.0383,-0.9932,-1.0001,-1.0004,-1.0084,-1.0101,-1.0156,-1.0177,-1.0204,-1.0227,-1.0294,-1.0332,-1.0343,-1.0368,-1.0415,-1.0458,-1.0461,-1.048,-1.0501,-1.0502,-1.0403,-1.039,-1.0377,-1.0362,-1.0504,-1.0505,-1.0604,-1.0605,-1.0606]},{"header":{"parameterUnit":"m.s-1","parameterCategory":1,"la1":30.2991,"la2":30.254,"lo1":-89.0895,"lo2":-89.0444,"dy":0.0017,"dx":0.0017,"nx":28,"ny":28,"refTime":"2024-11-23T09:00:00:Z","depth":0,"parameterNumber":3,"parameterNumberName":"V-component_of_WINDS"},"data":[0,0,0,0,0,0,0,0,0,0,0,0,0,0,0,0,0,0,0,0,0,0,0,0,0,0,0,0,0,0,0,0,0,0,0,0,0,0,0,0,0,0,0,0,0,0,0,0,0,0,0,0,0,0,0,0,0,0,-4.361,-4.361,0,-4.3693,-4.3694,-4.3695,-4.363,-4.3627,-4.3624,-4.3622,-4.3702,-4.3707,-4.3712,0,0,0,0,0,0,0,0,0,0,0,0,0,-4.3389,-4.3393,-4.3609,-4.3611,-4.3612,-4.3693,-4.3694,-4.3695,-4.363,-4.3627,-4.3623,-4.362,-4.3701,-4.3706,-4.3712,0,0,0,0,0,0,0,0,0,0,0,0,0,-4.348,-4.3395,-4.3609,-4.3589,-4.3588,-4.3692,-4.3694,-4.3695,-4.3631,-4.3627,-4.3623,-4.3619,-4.3699,-4.3706,-4.3713,-4.384,0,0,-4.3735,-4.3738,0,0,0,0,0,0,0,0,-4.3475,-4.3488,-4.3591,-4.3591,-4.359,-4.3647,-4.3646,-4.3744,-4.3632,-4.3615,-4.3621,-4.3617,-4.3687,-4.3695,-4.3719,-4.3844,-4.3847,-4.3735,-4.3739,-4.3743,-4.3745,0,0,0,0,0,0,0,-4.3468,-4.3484,-4.3642,-4.3593,-4.3592,-4.3574,-4.3582,-4.3664,-4.3673,-4.3616,-4.3611,-4.3622,-4.3686,-4.3713,-4.3721,-4.3848,-4.3735,-4.3741,-4.3746,-4.3748,-4.4079,-4.4083,0,0,0,0,0,0,-4.3465,-4.3479,-4.364,-4.3645,-4.3521,-4.3582,-4.3591,-4.3633,-4.3672,-4.3674,-4.3626,-4.3619,-4.3703,-4.3712,-4.3723,-4.3873,-4.3742,-4.3749,-4.3753,-4.4074,-4.408,-4.4085,0,0,0,0,0,0,-4.346,-4.348,-4.3636,-4.3561,-4.3579,-4.359,-4.3637,-4.3636,-4.3663,-4.3679,-4.368,-4.3652,-4.37,-4.3713,-4.3811,-4.3875,-4.3752,-4.3759,-4.4069,-4.4076,-4.4082,-4.4176,0,0,0,0,0,0,-4.3454,-4.3479,-4.3528,-4.3562,-4.3584,-4.3725,-4.3641,-4.3641,-4.3676,-4.3668,-4.3704,-4.3706,-4.3697,-4.3801,-4.3818,-4.3883,-4.3764,-4.4063,-4.4072,-4.408,-4.4167,-4.4185,-4.42,0,0,0,0,0,-4.3447,-4.3551,-4.3531,-4.3551,-4.3646,-4.3729,-4.3741,-4.373,-4.3682,-4.3731,-4.3741,-4.3705,-4.3866,-4.3812,-4.3831,-4.3898,-4.4059,-4.407,-4.4079,-4.4159,-4.4181,-4.42,0,0,0,0,0,0,-4.3523,-4.3555,-4.3534,-4.3652,-4.3688,-4.3718,-4.3779,-4.3753,-4.3803,-4.3793,-4.3776,-4.3784,-4.3887,-4.3902,-4.3842,-4.4022,-4.3954,-4.3969,-4.4009,-4.403,-4.4046,-4.404,-4.377,0,0,0,0,0,-4.3554,-4.3619,-4.3643,-4.3745,-4.3765,-4.3769,-4.3805,-4.3793,-4.3829,-4.3844,-4.3861,-4.3896,-4.3954,-4.3993,-4.4047,-4.4169,-4.4174,-4.4224,-4.4241,-4.4254,-4.4267,-4.433,-4.4352,-4.4118,-4.4118,-4.4118,0,0,-4.3617,-4.3643,-4.3686,-4.3761,-4.3788,-4.3855,-4.3782,-4.3856,-4.3905,-4.3854,-4.3948,-4.3962,-4.3999,-4.411,-4.4159,-4.4125,-4.4333,-4.4267,-4.4278,-4.4283,-4.4343,-4.4365,-4.4385,-4.4125,-4.4124,-4.4123,0,0,-4.3768,-4.3795,-4.3882,-4.3911,-4.3952,-4.3954,-4.3975,-4.4008,-4.4016,-4.411,-4.4073,-4.4129,-4.4231,-4.4258,-4.4286,-4.4446,-4.4414,-4.4464,-4.455,-4.4613,-4.4631,-4.4647,-4.4703,-4.4723,-4.4476,-4.4476,-4.4477,0,-4.3842,-4.3942,-4.393,-4.4007,-4.404,-4.3999,-4.4086,-4.4113,-4.417,-4.4193,-4.4155,-4.428,-4.4303,-4.4418,-4.4457,-4.4481,-4.4503,-4.4459,-4.463,-4.4646,-4.4661,-4.4714,-4.4735,-4.4482,-4.4481,-4.4481,-4.448,0,-4.403,-4.41,-4.4166,-4.4223,-4.4264,-4.4345,-4.4343,-4.4386,-4.437,-4.4376,-4.4471,-4.4496,-4.4555,-4.4581,-4.4567,-4.4694,-4.4672,-4.4632,-4.4564,-4.4689,-4.4738,-4.4759,-4.449,-4.4488,-4.4487,-4.4485,0,0,-4.4231,-4.428,-4.4304,-4.4329,-4.4371,-4.4424,-4.4503,-4.4561,-4.4597,-4.4637,-4.4702,-4.4787,-4.4751,-4.4782,-4.477,-4.4825,-4.4948,-4.4778,-4.4778,-4.4808,-4.5088,-4.5117,-4.5141,-4.4927,-4.4931,-4.4934,-4.5084,0,-4.4383,-4.4522,-4.4513,-4.4642,-4.4706,-4.4667,-4.4735,-4.4767,-4.4774,-4.4827,-4.4834,-4.4895,-4.4842,-4.486,-4.4913,-4.4922,-4.5004,-4.4911,-4.4985,-4.4988,-4.4976,-4.5167,-4.5198,-4.5339,-4.5104,-4.5107,-4.5109,0,-4.4579,-4.4627,-4.4764,-4.4795,-4.4821,-4.4883,-4.4935,-4.4987,-4.5021,-4.5022,-4.5057,-4.5035,-4.5112,-4.5043,-4.5147,-4.5085,-4.5114,-4.5123,-4.5128,-4.5134,-4.5056,-4.5177,-4.5384,-4.5404,-4.514,-4.5137,-4.5135,0,-4.4711,-4.4809,-4.4903,-4.4926,-4.4965,-4.5009,-4.5027,-4.5058,-4.5093,-4.5138,-4.516,-4.5212,-4.5241,-4.5281,-4.5274,-4.5224,-4.538,-4.531,-4.5381,-4.5382,-4.5416,-4.5414,-4.5629,-4.5436,-4.5436,-4.5436,-4.5435,0,-4.488,-4.4965,-4.4963,-4.5021,-4.5114,-4.5101,-4.5193,-4.5205,-4.5233,-4.5291,-4.526,-4.5315,-4.5301,-4.5355,-4.5349,-4.5436,-4.545,-4.5451,-4.5448,-4.5454,-4.5454,-4.5472,-4.5462,-4.5441,-4.544,-4.5439,-4.5438,0,-4.5043,-4.5045,-4.5145,-4.5174,-4.5183,-4.5251,-4.5274,-4.5328,-4.5332,-4.5406,-4.5422,-4.5428,-4.5489,-4.5486,-4.5555,-4.5551,-4.5658,-4.5644,-4.5647,-4.5644,-4.5715,-4.5708,-4.595,-4.598,-4.5768,-4.5771,-4.5772,0,-4.5152,-4.5216,-4.5252,-4.5289,-4.5311,-4.5371,-4.5407,-4.5396,-4.5434,-4.5478,-4.5526,-4.5585,-4.5631,-4.5731,-4.5741,-4.5793,-4.5779,-4.586,-4.5787,-4.579,-4.5779,-4.5775,-4.5781,-4.5875,-4.5877,-4.5879,-4.5881,0,-4.5343,-4.534,-4.5394,-4.5448,-4.5492,-4.5533,-4.5571,-4.5603,-4.5596,-4.564,-4.5703,-4.574,-4.581,-4.5869,-4.5918,-4.5935,-4.5906,-4.5904,-4.5923,-4.5929,-4.5927,-4.5928,-4.5685,-4.5898,-4.5896,-4.5895,-4.5894,-4.5894,-4.5481,-4.5536,-4.557,-4.563,-4.5657,-4.5693,-4.5745,-4.5755,-4.5809,-4.5866,-4.5856,-4.5927,-4.5957,-4.6022,-4.6043,-4.6096,-4.6067,-4.6095,-4.6102,-4.6109,-4.6117,-4.5919,-4.6105,-4.6105,-4.6104,-4.6104,-4.6104,0,-4.567,-4.5689,-4.5745,-4.5799,-4.5846,-4.5817,-4.5857,-4.5897,-4.5961,-4.5993,-4.6039,-4.6111,-4.6167,-4.618,-4.6234,-4.6274,-4.6262,-4.6288,-4.6285,-4.6289,-4.614,-4.6118,-4.6297,-4.6297,-4.6297,-4.6297,-4.6297,-4.6297,-4.5773,-4.5864,-4.5866,-4.5969,-4.5987,-4.6058,-4.6083,-4.6115,-4.614,-4.6222,-4.6269,-4.6278,-4.6302,-4.6357,-4.6406,-4.6408,-4.6429,-4.646,-4.6457,-4.6318,-4.6299,-4.6281,-4.626,-4.6465,-4.6465,-4.6601,-4.6602,-4.6603]}]]